FW6402 Weather Reports


Display with metric or nautical units.
time (UTC)temp
F
wind
direction
speed
MPH
gust
MPH
rain 1hr
in
rain 24hr
in
rain mn
in
humidity
%
barometer
mb
20260903112943 52 215 0.0 1.0 0.00 0.63 0.03 96 1011.9
20260903112442 52 226 0.0 1.0 0.00 0.63 0.03 96 1011.8
20260903111938 52 176 0.0 0.0 0.00 0.63 0.03 96 1011.8
20260903111435 52 215 0.0 0.0 0.00 0.63 0.03 96 1011.8
20260903110932 52 215 0.0 2.0 0.00 0.63 0.03 96 1011.9
20260903110441 53 215 0.0 2.0 0.00 0.63 0.03 96 1011.9
20260903105936 53 227 0.0 0.0 0.00 0.63 0.03 96 1011.9
20260903105434 53 227 0.0 1.0 0.00 0.63 0.03 96 1011.9
20260903104932 53 227 0.0 1.0 0.00 0.63 0.03 96 1011.9
20260903104425 53 110 0.0 1.0 0.00 0.63 0.03 96 1011.9
20260903103923 53 185 0.0 0.0 0.00 0.63 0.03 95 1012.0
20260903103444 53 185 0.0 0.0 0.00 0.63 0.03 95 1012.0
20260903102944 53 185 0.0 1.0 0.00 0.63 0.03 95 1012.1
20260903102422 53 185 0.0 1.0 0.00 0.63 0.03 95 1012.0
20260903101921 53 186 0.0 3.0 0.00 0.63 0.03 95 1012.0
20260903101437 53 146 0.0 3.0 0.00 0.63 0.03 95 1011.9
20260903100935 53 255 0.0 1.0 0.00 0.63 0.03 95 1011.8
20260903100443 54 255 0.0 1.0 0.00 0.63 0.03 95 1011.7
20260903095942 54 252 0.0 0.0 0.00 0.63 0.03 95 1011.7
20260903095440 54 252 0.0 1.0 0.01 0.63 0.03 95 1011.8
20260903094936 54 252 0.0 1.0 0.01 0.63 0.03 95 1011.8
20260903094430 54 252 0.0 1.0 0.01 0.63 0.03 95 1011.8
20260903093937 54 264 0.0 0.0 0.01 0.63 0.03 95 1011.8
20260903093435 54 265 0.0 0.0 0.01 0.63 0.03 95 1011.8
20260903092932 54 261 0.0 0.0 0.01 0.63 0.03 95 1011.9
20260903092450 54 249 0.0 0.0 0.01 0.63 0.03 95 1011.8
20260903091954 54 249 0.0 0.0 0.01 0.63 0.03 95 1011.8
20260903091428 55 263 0.0 0.0 0.01 0.63 0.03 95 1011.9
20260903090939 55 263 0.0 0.0 0.01 0.63 0.03 95 1011.9
20260903090425 55 264 0.0 0.0 0.01 0.63 0.03 95 1011.9
20260903085919 55 264 0.0 0.0 0.01 0.63 0.03 95 1012.0
20260903085506 55 264 0.0 0.0 0.00 0.62 0.02 95 1012.0
20260903084943 55 264 0.0 0.0 0.00 0.62 0.02 95 1012.1
20260903084443 55 264 0.0 0.0 0.01 0.62 0.02 95 1012.0
20260903083922 55 264 0.0 0.0 0.01 0.62 0.02 95 1012.0
20260903083420 55 264 0.0 0.0 0.01 0.62 0.02 95 1012.0
20260903082919 55 264 0.0 0.0 0.01 0.62 0.02 95 1012.1
20260903082436 55 264 0.0 0.0 0.02 0.62 0.02 95 1012.1
20260903081934 55 264 0.0 0.0 0.02 0.62 0.02 95 1012.1
20260903081442 55 252 0.0 0.0 0.02 0.62 0.02 95 1012.1
20260903080940 55 252 0.0 0.0 0.02 0.62 0.02 95 1012.1
20260903080419 55 253 0.0 0.0 0.02 0.62 0.02 95 1012.2
20260903075934 55 253 0.0 0.0 0.02 0.62 0.02 95 1012.2
20260903075433 55 251 0.0 0.0 0.02 0.62 0.02 95 1012.1
20260903075000 55 252 0.0 0.0 0.03 0.62 0.02 95 1012.2
20260903074436 55 252 0.0 0.0 0.02 0.61 0.01 95 1012.3
20260903073935 55 252 0.0 0.0 0.02 0.61 0.01 95 1012.1
20260903073433 55 252 0.0 0.0 0.02 0.61 0.01 95 1012.1
20260903072930 55 277 0.0 1.0 0.02 0.61 0.01 95 1012.0
20260903072457 55 255 0.0 3.0 0.02 0.60 0.00 95 1012.0
20260903071933 55 236 1.0 3.0 0.03 0.60 0.00 95 1012.1
20260903071431 55 256 0.0 4.0 0.04 0.60 0.00 95 1012.0
20260903070925 55 34 1.0 4.0 0.04 0.60 0.00 95 1012.0
20260903070418 55 223 0.0 3.0 0.04 0.60 0.00 95 1011.9
20260903065943 55 259 0.0 3.0 0.04 0.60 0.60 95 1012.0
20260903065421 55 266 0.0 3.0 0.04 0.60 0.60 95 1012.1
20260903064939 55 125 1.0 3.0 0.03 0.59 0.59 95 1012.0
20260903064445 55 261 1.0 3.0 0.03 0.59 0.59 95 1012.1
20260903063919 55 273 0.0 1.0 0.03 0.59 0.59 95 1012.0
20260903063417 55 223 0.0 3.0 0.03 0.59 0.59 95 1012.1
20260903062935 55 250 1.0 3.0 0.03 0.59 0.59 95 1012.1
20260903062432 55 229 1.0 4.0 0.02 0.58 0.58 95 1012.1
20260903061926 55 262 1.0 3.0 0.00 0.56 0.57 95 1012.1
20260903061433 55 268 0.0 2.0 0.00 0.56 0.56 95 1012.0
20260903060930 55 277 1.0 2.0 0.00 0.56 0.56 95 1011.9
20260903060426 55 321 0.0 1.0 0.00 0.56 0.56 95 1011.9
20260903055937 55 342 0.0 1.0 0.00 0.56 0.56 95 1011.9
20260903055443 55 342 0.0 1.0 0.00 0.56 0.56 95 1011.9
20260903054941 55 251 0.0 1.0 0.00 0.56 0.56 95 1011.9
20260903054436 55 251 0.0 3.0 0.00 0.56 0.56 95 1011.9
20260903053934 55 227 1.0 3.0 0.00 0.56 0.56 95 1012.0
20260903053432 55 82 0.0 1.0 0.00 0.56 0.56 95 1012.1
20260903052929 55 282 0.0 1.0 0.00 0.56 0.56 95 1012.1
20260903052426 55 42 0.0 1.0 0.00 0.56 0.56 95 1012.1
20260903051944 55 53 0.0 1.0 0.00 0.56 0.56 95 1012.1
20260903051423 55 43 0.0 2.0 0.00 0.56 0.56 95 1012.0
20260903050921 55 35 0.0 0.0 0.00 0.56 0.56 95 1011.9
20260903050418 55 35 0.0 1.0 0.00 0.56 0.56 94 1011.9
20260903045935 56 35 0.0 2.0 0.00 0.56 0.56 94 1011.9
20260903045436 56 239 0.0 0.0 0.00 0.56 0.56 94 1011.9
20260903044951 56 240 0.0 0.0 0.00 0.56 0.56 94 1011.9
20260903044450 56 240 0.0 2.0 0.00 0.56 0.56 94 1011.9
20260903043937 56 240 0.0 2.0 0.00 0.56 0.56 94 1011.8
20260903043441 56 185 0.0 0.0 0.00 0.56 0.56 94 1011.7
20260903042939 57 185 0.0 1.0 0.00 0.56 0.56 94 1011.7
20260903042435 57 185 0.0 2.0 0.00 0.56 0.56 94 1011.7
20260903042003 57 224 0.0 2.0 0.00 0.56 0.56 94 1011.7
20260903041439 57 275 0.0 0.0 0.00 0.56 0.56 94 1011.6
20260903040935 57 39 0.0 1.0 0.00 0.56 0.56 94 1011.5
20260903040433 57 37 0.0 1.0 0.00 0.56 0.56 94 1011.5
20260903035929 57 67 0.0 3.0 0.00 0.56 0.56 94 1011.4
20260903035435 57 41 1.0 3.0 0.00 0.56 0.56 94 1011.4
20260903034930 57 106 0.0 3.0 0.00 0.56 0.56 94 1011.2
20260903034427 57 107 1.0 3.0 0.00 0.56 0.56 94 1011.3
20260903033944 57 35 0.0 2.0 0.00 0.56 0.56 94 1011.1
20260903033420 57 35 1.0 2.0 0.00 0.56 0.56 94 1011.0
20260903032937 57 11 0.0 3.0 0.00 0.56 0.56 94 1011.0
20260903032434 57 44 0.0 3.0 0.00 0.56 0.56 94 1010.9
20260903031940 57 279 0.0 2.0 0.00 0.56 0.56 94 1010.8
20260903031438 58 158 0.0 1.0 0.00 0.56 0.56 94 1010.8
20260903030935 58 24 0.0 1.0 0.00 0.56 0.56 94 1010.7
20260903030432 58 106 0.0 1.0 0.00 0.56 0.56 94 1010.8
20260903025928 58 200 0.0 1.0 0.00 0.56 0.56 94 1010.8
20260903025423 58 200 0.0 1.0 0.00 0.56 0.56 94 1010.7
20260903024923 58 288 0.0 1.0 0.00 0.56 0.56 94 1010.5
20260903024434 58 70 0.0 1.0 0.00 0.56 0.56 94 1010.4
20260903023940 58 236 0.0 2.0 0.00 0.56 0.56 94 1010.3
20260903023456 58 294 0.0 2.0 0.00 0.56 0.56 94 1010.3
20260903022933 58 250 0.0 1.0 0.00 0.56 0.56 94 1010.2
20260903022459 58 227 0.0 1.0 0.00 0.56 0.56 94 1010.3
20260903021935 59 129 0.0 2.0 0.00 0.56 0.56 94 1010.4
20260903021433 59 234 0.0 1.0 0.00 0.56 0.56 94 1010.3
20260903020928 59 235 0.0 4.0 0.00 0.56 0.56 94 1010.2
20260903020424 59 128 1.0 4.0 0.00 0.56 0.56 94 1010.0
20260903015924 59 255 0.0 2.0 0.00 0.56 0.56 94 1010.1
20260903015421 59 68 0.0 2.0 0.00 0.56 0.56 94 1010.0
20260903015005 59 165 0.0 1.0 0.00 0.56 0.56 94 1010.0
20260903014442 59 86 0.0 2.0 0.01 0.56 0.56 94 1009.8
20260903013918 59 214 0.0 2.0 0.01 0.56 0.56 94 1010.0
20260903013436 59 231 1.0 2.0 0.01 0.56 0.56 94 1010.1
20260903012921 59 246 0.0 1.0 0.01 0.56 0.56 94 1010.0
20260903012436 59 153 0.0 0.0 0.01 0.56 0.56 94 1009.9
20260903011935 59 151 0.0 1.0 0.01 0.56 0.56 94 1009.8
20260903011434 59 245 0.0 2.0 0.01 0.56 0.56 94 1009.8
20260903010932 59 259 0.0 2.0 0.01 0.56 0.56 94 1009.7
20260903010457 59 212 0.0 2.0 0.02 0.56 0.56 94 1009.7
20260903005933 59 227 0.0 2.0 0.02 0.56 0.56 94 1009.7
20260903005432 59 267 0.0 2.0 0.02 0.56 0.56 95 1009.7
20260903004957 59 250 0.0 2.0 0.03 0.56 0.56 95 1009.6
20260903004433 59 276 0.0 1.0 0.05 0.55 0.55 95 1009.6
20260903003932 59 234 0.0 1.0 0.09 0.55 0.55 95 1009.6
20260903003424 58 242 0.0 0.0 0.15 0.55 0.55 95 1009.4
20260903002943 58 233 0.0 0.0 0.18 0.55 0.55 95 1009.5
20260903002443 58 246 0.0 1.0 0.21 0.55 0.55 95 1009.5
20260903001939 58 260 0.0 2.0 0.21 0.55 0.55 95 1009.4
20260903001445 58 226 0.0 3.0 0.22 0.55 0.55 95 1009.5
20260903000923 58 257 0.0 3.0 0.23 0.55 0.55 95 1009.4
20260903000420 58 240 0.0 3.0 0.22 0.54 0.54 94 1009.5
20260902235937 58 238 1.0 3.0 0.22 0.54 0.54 94 1009.4
20260902235504 58 199 1.0 4.0 0.22 0.54 0.54 94 1009.4
20260902234921 58 226 0.0 4.0 0.21 0.53 0.53 94 1009.3
20260902234435 59 242 2.0 4.0 0.18 0.50 0.50 94 1009.3
20260902233933 59 253 1.0 4.0 0.14 0.46 0.46 94 1009.2
20260902233432 59 263 1.0 6.0 0.07 0.39 0.39 94 1009.2
20260902232930 59 278 1.0 4.0 0.05 0.37 0.37 93 1009.1
20260902232430 59 286 1.0 4.0 0.02 0.34 0.34 93 1009.1
20260902231926 59 246 3.0 4.0 0.01 0.33 0.33 93 1009.2
20260902231418 60 244 1.0 5.0 0.01 0.33 0.33 92 1009.1
20260902230918 60 272 1.0 5.0 0.00 0.32 0.32 91 1009.1
20260902230445 60 252 1.0 5.0 0.00 0.32 0.32 91 1009.1
20260902225941 60 32 1.0 5.0 0.00 0.32 0.32 91 1009.0
20260902225419 60 184 0.0 3.0 0.00 0.32 0.32 92 1008.9
20260902224933 60 278 1.0 4.0 0.00 0.32 0.32 91 1008.9
20260902224439 60 236 1.0 4.0 0.00 0.32 0.32 91 1008.8
20260902223938 60 230 1.0 5.0 0.00 0.32 0.32 92 1008.8
20260902223433 60 144 2.0 5.0 0.00 0.32 0.32 92 1008.8
20260902222950 60 252 0.0 4.0 0.00 0.32 0.32 92 1008.9
20260902222449 60 177 0.0 2.0 0.00 0.32 0.32 93 1008.8
20260902221918 60 233 0.0 3.0 0.00 0.32 0.32 92 1008.8
20260902221445 60 259 1.0 9.0 0.01 0.32 0.32 93 1008.9
20260902220922 60 53 1.0 6.0 0.01 0.32 0.32 93 1008.8
20260902220435 60 287 0.0 3.0 0.01 0.32 0.32 93 1008.8
20260902215933 60 81 0.0 2.0 0.01 0.32 0.32 93 1008.8
20260902215440 60 235 0.0 2.0 0.01 0.32 0.32 93 1008.7
20260902214937 60 242 0.0 2.0 0.01 0.32 0.32 93 1008.7
20260902214435 60 269 1.0 2.0 0.01 0.32 0.32 93 1008.7
20260902213934 60 231 0.0 1.0 0.01 0.32 0.32 93 1008.8
20260902213442 60 107 0.0 1.0 0.02 0.32 0.32 93 1008.7
20260902212937 60 223 0.0 2.0 0.02 0.32 0.32 92 1008.8
20260902212436 60 71 0.0 2.0 0.02 0.32 0.32 92 1008.8
20260902211931 60 68 0.0 4.0 0.03 0.32 0.32 92 1008.8
20260902211445 60 141 0.0 1.0 0.04 0.31 0.31 93 1008.8
20260902210924 60 141 0.0 5.0 0.05 0.31 0.31 93 1008.7
20260902210443 59 71 3.0 11.0 0.06 0.31 0.31 92 1008.7
20260902205919 59 238 0.0 11.0 0.07 0.31 0.31 92 1008.9
20260902205417 59 89 1.0 6.0 0.08 0.31 0.31 93 1008.7
20260902204935 59 90 0.0 2.0 0.10 0.31 0.31 93 1008.8
20260902204432 59 102 0.0 3.0 0.11 0.31 0.31 93 1008.6
20260902203936 59 108 1.0 5.0 0.13 0.31 0.31 92 1008.7
20260902203433 59 114 1.0 6.0 0.14 0.30 0.30 92 1008.4
20260902202927 59 61 1.0 4.0 0.16 0.30 0.30 92 1008.5
20260902202423 59 63 1.0 7.0 0.16 0.29 0.29 92 1008.4
20260902201925 59 105 3.0 7.0 0.16 0.28 0.28 92 1008.4
20260902201422 59 82 2.0 6.0 0.16 0.27 0.27 93 1008.5
20260902200934 59 106 2.0 6.0 0.15 0.26 0.26 93 1008.4
20260902200442 59 29 2.0 5.0 0.15 0.25 0.25 93 1008.4
20260902195938 59 70 1.0 4.0 0.15 0.24 0.24 92 1008.6
20260902195435 59 111 2.0 3.0 0.14 0.23 0.23 92 1008.8
20260902194931 59 91 1.0 3.0 0.13 0.21 0.21 92 1008.8
20260902194427 59 84 2.0 3.0 0.12 0.20 0.20 91 1008.9
20260902193928 59 122 1.0 2.0 0.10 0.18 0.18 91 1008.9
20260902193423 59 75 1.0 3.0 0.09 0.16 0.16 90 1008.9
20260902192942 59 96 2.0 3.0 0.07 0.14 0.14 90 1008.9
20260902192438 59 74 2.0 5.0 0.06 0.13 0.13 90 1008.9
20260902191957 59 44 2.0 5.0 0.06 0.12 0.12 90 1008.9
20260902191444 59 96 3.0 5.0 0.05 0.11 0.11 90 1008.8
20260902190921 59 101 1.0 3.0 0.06 0.11 0.11 90 1008.8
20260902190419 59 101 1.0 4.0 0.06 0.10 0.10 90 1008.7
20260902185946 59 125 2.0 4.0 0.06 0.09 0.09 89 1008.8
20260902185439 60 77 1.0 4.0 0.05 0.08 0.08 89 1008.9
20260902184936 60 88 2.0 4.0 0.05 0.08 0.08 88 1009.0
20260902184434 60 97 0.0 2.0 0.06 0.08 0.08 89 1009.2
20260902183933 60 103 1.0 4.0 0.06 0.07 0.07 89 1009.1
20260902183455 60 63 1.0 4.0 0.06 0.07 0.07 89 1009.3
20260902182931 60 61 0.0 2.0 0.06 0.07 0.07 90 1009.4
20260902182427 60 68 1.0 2.0 0.07 0.07 0.07 90 1009.5
20260902181919 60 91 0.0 1.0 0.06 0.06 0.06 90 1009.7
20260902181445 60 269 0.0 1.0 0.06 0.06 0.06 89 1009.6
20260902180939 60 278 0.0 3.0 0.05 0.05 0.05 88 1009.8
20260902180437 60 274 1.0 6.0 0.04 0.04 0.04 88 1009.7
20260902175935 60 297 0.0 3.0 0.03 0.03 0.03 87 1009.6
20260902175432 61 265 0.0 3.0 0.03 0.03 0.03 85 1009.5
20260902175000 61 184 0.0 1.0 0.03 0.03 0.03 85 1009.5
20260902174437 62 181 0.0 1.0 0.02 0.02 0.02 84 1009.4
20260902173934 62 181 0.0 1.0 0.01 0.01 0.01 81 1009.2
20260902173433 63 176 0.0 0.0 0.01 0.01 0.01 80 1009.3
20260902172934 63 172 0.0 0.0 0.01 0.01 0.01 81 1009.1
20260902172431 63 172 0.0 0.0 0.00 0.00 0.00 80 1009.0
20260902171924 64 167 0.0 0.0 0.00 0.00 0.00 80 1008.9
20260902171425 64 167 0.0 0.0 0.00 0.00 0.00 76 1008.8
20260902170923 65 131 0.0 0.0 0.00 0.00 0.00 78 1008.7
20260902170420 65 131 0.0 0.0 0.00 0.00 0.00 74 1008.7
20260902165917 64 131 0.0 0.0 0.00 0.00 0.00 72 1008.6
20260902165434 64 167 0.0 0.0 0.00 0.00 0.00 72 1008.7
20260902164919 65 174 0.0 0.0 0.00 0.00 0.00 72 1008.6
20260902164436 65 177 0.0 0.0 0.00 0.00 0.00 72 1008.6
20260902163944 64 178 0.0 0.0 0.00 0.00 0.00 73 1008.6
20260902163440 64 179 0.0 0.0 0.00 0.00 0.00 74 1008.6
20260902162933 64 179 0.0 0.0 0.00 0.00 0.00 74 1008.6
20260902162450 64 179 0.0 0.0 0.00 0.00 0.00 73 1008.6
20260902161957 64 81 0.0 0.0 0.00 0.00 0.00 73 1008.6
20260902161452 64 92 0.0 0.0 0.00 0.00 0.00 73 1008.7
20260902160958 63 149 0.0 1.0 0.00 0.00 0.00 74 1008.7
20260902160454 63 82 0.0 2.0 0.00 0.00 0.00 74 1008.8
20260902155928 63 82 1.0 3.0 0.00 0.00 0.00 75 1008.9
20260902155428 63 65 0.0 3.0 0.00 0.00 0.00 75 1008.9
20260902154922 62 77 0.0 2.0 0.00 0.00 0.00 76 1008.9
20260902154419 62 107 0.0 1.0 0.00 0.00 0.00 76 1009.0
20260902154005 62 103 0.0 1.0 0.00 0.00 0.00 76 1009.0
20260902153441 62 109 0.0 2.0 0.00 0.00 0.00 77 1009.2
20260902152917 62 65 1.0 3.0 0.00 0.00 0.00 77 1009.2
20260902152434 62 53 0.0 3.0 0.00 0.00 0.00 77 1009.3
20260902151932 62 113 1.0 3.0 0.00 0.00 0.00 77 1009.3
20260902151433 62 82 1.0 2.0 0.00 0.00 0.00 77 1009.4
20260902150930 61 91 1.0 3.0 0.00 0.00 0.00 77 1009.3
20260902150444 61 109 0.0 3.0 0.00 0.00 0.00 77 1009.4
20260902145921 61 131 0.0 2.0 0.00 0.00 0.00 77 1009.5
20260902145418 61 108 1.0 3.0 0.00 0.00 0.00 77 1009.5
20260902144937 61 83 0.0 3.0 0.00 0.00 0.00 77 1009.5
20260902144504 61 96 1.0 2.0 0.00 0.00 0.00 77 1009.6
20260902143941 61 160 0.0 4.0 0.00 0.00 0.00 78 1009.8
20260902143418 61 74 2.0 4.0 0.00 0.00 0.00 78 1009.6
20260902142937 61 167 0.0 2.0 0.00 0.00 0.00 78 1009.8
20260902142504 61 178 0.0 2.0 0.00 0.00 0.00 77 1010.0
20260902141940 61 105 0.0 2.0 0.00 0.00 0.00 78 1009.8
20260902141419 61 104 0.0 2.0 0.00 0.00 0.00 77 1010.0
20260902140933 61 46 0.0 1.0 0.00 0.00 0.00 77 1010.1
20260902140432 61 70 0.0 3.0 0.00 0.00 0.00 77 1010.2
20260902135929 61 67 2.0 3.0 0.00 0.00 0.00 76 1010.2
20260902135457 61 99 1.0 3.0 0.00 0.00 0.00 77 1010.2
20260902134931 61 78 2.0 3.0 0.00 0.00 0.00 77 1010.3
20260902134441 61 120 1.0 2.0 0.00 0.00 0.00 76 1010.4
20260902133926 61 96 0.0 1.0 0.00 0.00 0.00 76 1010.5
20260902133424 61 75 0.0 1.0 0.00 0.00 0.00 76 1010.5
20260902132918 61 75 0.0 1.0 0.00 0.00 0.00 76 1010.6
20260902132432 61 82 0.0 2.0 0.00 0.00 0.00 76 1010.5
20260902131930 61 63 0.0 1.0 0.00 0.00 0.00 76 1010.6
20260902131430 61 63 0.0 1.0 0.00 0.00 0.00 76 1010.8
20260902130925 61 51 0.0 2.0 0.00 0.00 0.00 77 1010.9
20260902130436 61 51 0.0 2.0 0.00 0.00 0.00 77 1010.8
20260902125943 60 20 0.0 0.0 0.00 0.00 0.00 77 1010.9
20260902125441 60 321 0.0 0.0 0.00 0.00 0.00 78 1010.9
20260902124937 60 259 0.0 0.0 0.00 0.00 0.00 78 1011.0
20260902124436 60 259 0.0 1.0 0.00 0.00 0.00 79 1011.0
20260902123954 60 259 0.0 1.0 0.00 0.00 0.00 79 1011.1
20260902123441 60 259 0.0 0.0 0.00 0.00 0.00 79 1011.3
20260902122936 60 259 0.0 0.0 0.00 0.00 0.00 79 1011.2
20260902122429 60 259 0.0 1.0 0.00 0.00 0.00 79 1011.4
20260902121927 60 259 0.0 1.0 0.00 0.00 0.00 80 1011.4
20260902121423 60 259 0.0 1.0 0.00 0.00 0.00 80 1011.4
20260902120943 60 259 0.0 0.0 0.00 0.00 0.00 80 1011.5
20260902120442 60 259 0.0 1.0 0.00 0.00 0.00 80 1011.6
20260902115918 60 259 0.0 2.0 0.00 0.00 0.00 80 1011.7
20260902115457 60 171 0.0 2.0 0.00 0.00 0.00 80 1011.7
20260902114941 60 93 0.0 1.0 0.00 0.00 0.00 81 1011.7
20260902114457 60 94 0.0 3.0 0.00 0.00 0.00 81 1011.8
20260902113927 60 72 1.0 3.0 0.00 0.00 0.00 81 1011.8
20260902113435 60 257 0.0 0.0 0.00 0.00 0.00 82 1011.8